CAPE
0 0 0 0 0 0 0 51 99 162 102 67 0 0 41 41 84 52 0 7 19 54 58 92 122 203 253 270 254 214 259 271 355 342 275 184 142 154 151 419 614 692 586 663
0 0 0 0 0 0 0 18 53 183 88 2 0 1 33 69 62 57 62 0 0 40 65 107 155 218 277 290 212 326 235 234 355 368 279 257 178 42 57 245 561 716 727 708
0 0 0 0 0 0 0 0 32 64 62 21 3 13 31 66 46 73 84 0 0 1 61 147 177 219 261 257 186 257 148 152 323 397 312 299 256 226 136 201 538 715 788 735
0 0 0 0 0 0 0 0 20 103 9 1 0 0 9 18 21 46 63 40 0 0 62 122 169 203 235 210 176 236 154 119 299 418 433 308 355 311 258 194 430 578 807 745
0 0 0 0 0 0 0 0 0 8 10 11 9 0 0 25 44 6 19 31 0 6 36 96 131 177 219 192 169 188 247 127 116 351 401 318 336 299 293 309 444 535 733 855
0 0 0 0 0 0 0 0 19 18 10 0 2 1 0 36 22 0 7 20 0 7 24 71 128 195 250 187 147 129 151 131 73 98 293 330 256 213 288 311 293 515 740 830
0 0 0 0 0 0 0 0 2 0 0 0 0 0 0 3 50 43 6 43 18 5 14 50 114 175 187 236 161 121 54 79 121 92 172 194 279 220 255 377 295 360 668 828
0 0 0 0 0 0 0 0 0 0 0 0 0 1 0 3 0 70 12 35 19 0 5 29 130 156 93 201 195 194 156 97 109 194 221 245 191 176 148 201 459 412 544 692
0 0 0 0 0 0 0 0 0 0 0 0 0 0 20 35 8 33 47 63 13 0 12 32 97 102 77 192 282 216 179 142 99 251 443 570 357 313 237 257 381 331 513 650
0 0 0 0 0 0 0 0 0 0 0 0 0 0 5 46 73 164 195 146 80 0 14 42 30 29 121 137 153 337 240 203 185 163 211 361 443 302 244 129 257 262 130 244
0 0 0 0 0 0 0 0 0 0 0 0 0 0 119 80 102 230 252 245 106 26 7 19 63 62 81 71 94 172 239 337 309 261 316 358 481 407 246 296 271 211 150 312
0 0 0 0 0 0 0 0 0 0 0 0 0 0 170 271 296 167 151 203 88 41 67 97 66 83 93 117 130 71 51 95 153 218 426 466 509 547 580 551 545 388 353 462
0 0 0 0 0 0 0 0 0 0 8 17 0 0 215 237 235 173 98 110 49 35 57 128 176 189 167 135 75 29 14 33 110 102 172 260 262 294 318 353 372 318 395 422
0 0 0 0 0 0 0 0 0 0 0 4 0 57 283 204 233 196 198 87 68 48 20 44 96 187 117 62 7 4 11 34 53 5 0 28 61 53 64 21 73 156 409 534
0 0 0 0 0 0 0 0 0 0 0 0 1 48 243 249 150 175 127 138 98 37 12 1 2 14 80 32 10 21 4 8 11 0 4 0 0 75 0 0 0 34 76 336
0 0 0 0 0 0 0 0 0 0 0 1 60 158 315 191 44 84 65 37 21 0 0 0 0 0 0 1 0 0 0 34 131 36 1 37 106 19 18 0 0 0 6 153
0 0 0 0 0 0 0 0 0 37 100 142 22 169 269 141 76 11 0 0 0 0 0 0 0 1 1 0 0 0 1 1 0 0 0 0 43 108 107 78 5 8 23 172
0 0 0 0 0 0 0 39 39 187 216 200 299 346 114 6 0 0 0 0 0 0 0 0 0 0 0 0 0 0 0 0 0 0 0 0 0 0 0 0 0 13 22 32
0 0 0 0 0 0 0 0 0 8 56 173 308 129 0 0 0 0 0 0 0 0 0 0 0 0 0 0 0 0 0 0 0 0 0 0 0 0 0 0 0 0 0 0
0 0 0 0 0 0 0 0 0 0 0 114 80 0 0 0 26 0 0 0 0 0 0 0 0 0 0 0 0 0 0 0 0 0 0 0 0 0 0 0 0 0 0 0
0 0 0 0 0 0 0 0 0 0 0 125 31 7 0 2 0 0 0 0 0 0 0 0 0 0 0 0 0 0 0 0 0 0 0 0 0 0 0 0 0 0 0 0
0 0 0 0 0 0 0 0 0 0 0 43 24 0 10 0 0 0 0 0 0 0 0 0 0 0 0 0 0 0 0 0 0 0 0 0 0 0 0 0 0 0 0 0
0 0 0 0 0 0 0 0 0 0 0 0 9 0 0 0 0 0 0 0 0 0 0 0 0 0 0 0 0 0 0 0 0 0 0 0 0 0 0 0 0 0 0 0
0 0 0 0 0 0 0 0 0 0 0 0 0 0 0 0 0 0 0 0 0 0 0 0 0 0 0 0 0 0 0 0 0 0 0 0 0 0 0 0 0 0 0 0
0 0 0 0 0 0 0 0 0 0 0 0 0 0 0 0 0 0 0 0 0 0 0 0 0 0 0 0 0 0 0 0 0 0 0 0 0 0 0 0 0 0 0 0
0 0 0 0 0 0 0 0 0 0 0 0 0 0 0 0 0 0 0 0 0 0 0 0 0 0 0 0 0 0 0 0 0 0 0 0 0 0 0 0 0 0 0 0
CIN
-0 -0 -0 -0 -0 -0 -0 -81 -39 -50 -84 -46 -0 -0 -24 -14 -18 -10 -0 -36 -41 -53 -81 -79 -100 -90 -88 -94 -79 -82 -80 -82 -65 -80 -55 -74 -61 -71 -81 -52 -45 -44 -50 -49
-0 -0 -0 -0 -0 -0 -0 -66 -91 -57 -67 -52 -24 -43 -50 -35 -38 -11 -13 -0 -0 -57 -88 -95 -91 -94 -97 -93 -83 -68 -78 -94 -72 -69 -77 -60 -71 -124 -115 -82 -50 -41 -34 -40
-0 -0 -0 -0 -0 -0 -0 -0 -104 -68 -101 -37 -18 -39 -52 -30 -25 -12 -10 -0 -0 -19 -78 -93 -91 -83 -94 -86 -100 -82 -92 -101 -77 -64 -72 -83 -96 -90 -104 -84 -41 -39 -36 -35
-0 -0 -0 -0 -0 -0 -0 -0 -111 -99 -99 -43 -0 -0 -60 -50 -38 -18 -17 -35 -0 -0 -83 -85 -86 -87 -103 -97 -96 -87 -102 -116 -80 -62 -41 -46 -40 -45 -68 -59 -53 -39 -37 -37
-0 -0 -0 -0 -0 -0 -0 -0 -0 -97 -99 -75 -102 -0 -0 -76 -45 -49 -32 -43 -0 -99 -84 -75 -88 -108 -133 -109 -112 -101 -87 -114 -110 -63 -47 -34 -39 -47 -56 -56 -44 -45 -39 -37
-0 -0 -0 -0 -0 -0 -0 -0 -131 -133 -107 -0 -34 -77 -0 -147 -123 -0 -99 -84 -0 -104 -100 -80 -101 -123 -131 -136 -127 -113 -98 -105 -115 -94 -68 -41 -46 -64 -57 -50 -50 -38 -35 -35
-0 -0 -0 -0 -0 -0 -0 -0 -10 -0 -0 -0 -0 -0 -0 -16 -152 -141 -224 -169 -163 -139 -112 -101 -101 -104 -124 -137 -126 -115 -116 -101 -106 -101 -76 -69 -53 -66 -66 -40 -45 -54 -42 -40
-0 -0 -0 -0 -0 -0 -0 -0 -0 -0 -0 -0 -0 -11 -0 -227 -16 -130 -154 -146 -64 -0 -109 -123 -114 -112 -146 -119 -111 -116 -107 -90 -95 -93 -66 -65 -70 -83 -93 -71 -68 -65 -46 -39
-0 -0 -0 -0 -0 -0 -0 -0 -0 -0 -0 -0 -0 -0 -285 -258 -243 -201 -163 -141 -110 -0 -136 -152 -134 -128 -126 -92 -82 -120 -122 -105 -98 -73 -53 -41 -59 -60 -65 -78 -81 -96 -70 -53
-0 -0 -0 -0 -0 -0 -0 -0 -0 -0 -0 -0 -0 -0 -126 -201 -224 -177 -159 -156 -155 -11 -191 -195 -142 -131 -95 -85 -85 -59 -107 -94 -90 -74 -56 -51 -45 -56 -75 -118 -96 -103 -127 -97
-0 -0 -0 -0 -0 -0 -0 -0 -0 -0 -0 -0 -0 -0 -169 -170 -209 -163 -175 -149 -176 -226 -212 -166 -169 -164 -99 -104 -76 -65 -82 -83 -82 -87 -62 -45 -42 -49 -64 -66 -81 -89 -133 -99
-0 -0 -0 -0 -0 -0 -0 -0 -0 -0 -0 -0 -0 -0 -176 -113 -119 -173 -160 -146 -159 -216 -181 -169 -152 -170 -165 -105 -67 -79 -117 -87 -95 -63 -64 -63 -61 -47 -36 -42 -48 -61 -56 -73
-0 -0 -0 -0 -0 -0 -0 -0 -0 -0 -140 -59 -0 -0 -153 -155 -129 -149 -181 -165 -180 -177 -131 -123 -141 -116 -130 -118 -109 -126 -114 -166 -122 -137 -109 -114 -105 -82 -63 -64 -74 -70 -52 -50
-0 -0 -0 -0 -0 -0 -0 -0 -0 -0 -0 -73 -0 -176 -137 -192 -173 -186 -175 -174 -159 -173 -218 -188 -121 -79 -93 -119 -151 -79 -162 -170 -146 -80 -0 -113 -148 -134 -132 -154 -138 -115 -86 -59
-0 -0 -0 -0 -0 -0 -0 -0 -0 -0 -0 -0 -42 -122 -225 -210 -232 -208 -249 -222 -229 -248 -290 -0 -53 -157 -99 -117 -165 -216 -190 -170 -135 -11 -61 -0 -0 -126 -0 -0 -0 -213 -170 -113
-0 -0 -0 -0 -0 -0 -0 -0 -0 -0 -0 -27 -148 -164 -163 -221 -299 -256 -298 -334 -341 -0 -0 -0 -0 -0 -0 -0 -0 -0 -0 -110 -61 -58 -95 -182 -80 -140 -83 -0 -0 -0 -104 -147
-0 -0 -0 -0 -0 -15 -2 -0 -0 -129 -187 -143 -73 -157 -237 -262 -313 -299 -0 -0 -0 -0 -0 -0 -0 -0 -0 -0 -0 -0 -0 -0 -0 -0 -0 -0 -125 -53 -57 -93 -48 -59 -118 -136
-0 -0 -0 -0 -0 -0 -0 -87 -61 -146 -148 -160 -186 -199 -263 -121 -0 -0 -0 -0 -0 -0 -0 -0 -0 -0 -0 -0 -0 -0 -0 -0 -0 -0 -0 -0 -0 -0 -0 -0 -0 -171 -143 -191
-0 -0 -0 -0 -0 -0 -0 -0 -0 -97 -145 -142 -133 -177 -0 -0 -0 -0 -0 -0 -0 -0 -0 -0 -0 -0 -0 -0 -0 -0 -0 -0 -0 -0 -0 -0 -0 -0 -0 -0 -0 -0 -0 -0
-0 -0 -0 -0 -0 -0 -0 -0 -0 -0 -0 -176 -216 -0 -0 -0 -226 -0 -0 -0 -0 -0 -0 -0 -0 -0 -0 -0 -0 -0 -0 -0 -0 -0 -0 -0 -0 -0 -0 -0 -0 -0 -0 -0
-0 -0 -0 -0 -0 -0 -0 -0 -0 -0 -0 -135 -240 -256 -0 -77 -0 -0 -0 -0 -0 -0 -0 -0 -0 -0 -0 -0 -0 -0 -0 -0 -0 -0 -0 -0 -0 -0 -0 -0 -0 -0 -0 -0
-0 -0 -0 -0 -0 -0 -0 -0 -0 -0 -0 -154 -234 -28 -238 -0 -0 -0 -0 -0 -0 -0 -0 -0 -0 -0 -0 -0 -0 -0 -0 -0 -0 -0 -0 -0 -0 -0 -0 -0 -0 -0 -0 -0
-0 -0 -0 -0 -0 -0 -0 -0 -0 -0 -0 -0 -241 -0 -0 -0 -0 -0 -0 -0 -0 -0 -0 -0 -0 -0 -0 -0 -0 -0 -0 -0 -0 -0 -0 -0 -0 -0 -0 -0 -0 -0 -0 -0
-0 -0 -0 -0 -0 -0 -0 -0 -0 -0 -0 -0 -0 -0 -0 -0 -0 -0 -0 -0 -0 -0 -0 -0 -0 -0 -0 -0 -0 -0 -0 -0 -0 -0 -0 -0 -0 -0 -0 -0 -0 -0 -0 -0
-0 -0 -0 -0 -0 -0 -0 -0 -0 -0 -0 -0 -0 -0 -0 -0 -0 -0 -0 -0 -0 -0 -0 -0 -0 -0 -0 -0 -0 -0 -0 -0 -0 -0 -0 -0 -0 -0 -0 -0 -0 -0 -0 -0
-0 -0 -0 -0 -0 -0 -0 -0 -0 -0 -0 -0 -0 -0 -0 -0 -0 -0 -0 -0 -0 -0 -0 -0 -0 -0 -0 -0 -0 -0 -0 -0 -0 -0 -0 -0 -0 -0 -0 -0 -0 -0 -0 -0
Wind_Speed
19 22 26 20 18 12 15 14 14 14 14 14 18 21 16 26 28 23 26 24 25 24 22 24 27 27 29 28 27 27 27 28 26 26 25 24 25 23 22 22 23 24 23 24
20 29 22 19 17 16 14 13 14 12 14 17 17 18 15 11 38 30 18 14 26 7 10 15 21 28 29 28 28 27 28 27 27 26 25 22 24 22 22 22 23 23 24 24
22 22 18 18 19 19 18 17 15 15 11 11 8 15 14 24 36 32 27 20 9 12 16 21 21 29 30 29 28 28 29 27 26 26 24 22 21 20 21 22 23 23 24 25
22 18 19 23 23 21 25 17 13 9 13 16 16 16 19 8 24 39 36 27 14 11 15 23 23 28 30 30 30 29 29 28 27 27 25 24 24 22 21 23 22 23 23 24
22 23 22 25 25 19 23 14 12 13 17 19 24 21 22 9 9 43 38 28 17 14 17 21 27 32 32 30 27 29 29 29 28 28 25 25 24 22 21 23 23 23 22 22
23 18 20 22 21 21 16 14 15 17 21 27 28 27 24 22 25 26 41 42 19 15 17 20 32 28 34 34 28 27 27 29 30 28 27 25 25 25 23 23 23 23 23 22
26 29 25 21 21 18 21 19 24 26 27 28 23 23 27 17 7 18 32 38 30 18 14 12 15 16 29 33 31 13 28 28 30 30 29 27 26 24 24 24 24 24 24 23
27 32 26 21 24 21 23 23 25 29 29 26 18 26 20 22 26 21 15 30 24 12 13 12 12 11 14 12 27 12 12 25 5 26 28 28 27 26 25 24 25 25 25 24
24 27 22 21 20 19 22 30 22 20 22 24 26 23 22 18 15 12 9 9 11 20 13 14 11 15 16 11 22 29 13 10 6 7 21 25 24 24 25 24 24 25 25 24
21 24 19 20 18 20 21 17 27 24 27 29 25 24 22 21 15 6 5 10 12 10 10 11 12 9 19 19 32 28 21 22 18 16 18 22 24 22 22 21 22 24 21 22
22 21 20 19 21 21 20 23 20 22 23 28 28 26 20 21 16 12 9 7 10 11 8 9 6 9 13 18 21 20 18 19 22 23 21 21 21 21 18 18 21 20 22 22
20 20 25 19 21 22 20 22 20 28 29 24 25 25 18 13 12 11 10 8 7 9 6 13 8 2 3 13 15 13 14 15 19 21 19 20 22 22 21 21 21 21 22 21
17 20 24 21 18 18 20 21 20 17 19 28 28 26 15 12 11 10 8 6 8 8 8 4 3 4 5 9 14 14 16 13 18 16 18 17 19 20 19 19 20 21 22 23
14 17 22 26 22 19 21 21 19 21 26 24 26 19 15 12 9 6 6 4 4 4 6 7 6 7 6 6 14 9 10 12 14 17 17 18 17 16 16 16 17 18 20 21
14 16 14 15 16 13 15 20 23 24 22 26 22 17 12 10 8 7 2 1 2 3 5 7 8 10 9 9 10 12 13 9 11 11 21 20 20 23 22 21 19 19 21 21
17 19 18 17 17 14 17 19 21 21 21 22 15 19 13 9 9 9 8 6 4 4 5 5 7 10 11 9 7 9 11 15 11 6 17 20 21 21 24 23 20 21 23 23
17 16 20 22 24 25 28 24 24 25 23 20 23 19 12 13 12 11 9 8 6 5 4 5 5 6 7 8 7 8 10 10 8 8 8 11 17 19 19 22 22 23 23 22
17 22 24 22 23 29 24 21 17 19 21 24 21 12 12 11 11 9 8 5 5 3 4 5 4 4 6 7 7 6 7 8 6 8 9 9 10 13 13 13 14 18 23 23
15 16 18 24 26 23 23 20 20 21 23 20 14 10 11 9 7 12 7 3 1 2 4 5 7 7 5 6 5 6 7 7 7 10 12 13 13 14 14 12 12 16 17 22
17 15 18 18 23 32 21 22 22 21 25 17 12 11 13 12 17 14 9 4 2 0 2 4 5 3 4 4 5 6 7 8 9 11 12 13 14 15 16 18 18 19 18 18
21 21 23 23 25 24 22 26 25 27 23 13 8 7 11 17 18 9 8 6 3 1 2 2 3 5 6 7 8 8 9 10 11 11 12 14 15 15 16 15 16 17 17 16
19 20 22 23 26 29 24 22 26 25 25 19 17 13 9 9 5 7 8 6 6 5 4 4 5 7 8 9 10 13 13 13 13 13 14 15 15 16 16 17 17 17 17 17
20 17 18 16 18 19 21 20 22 23 26 24 18 19 14 9 9 7 6 5 5 6 6 7 8 9 12 13 12 13 13 14 14 14 15 17 17 18 19 19 19 19 20 20
17 15 19 18 18 19 20 19 20 20 22 20 14 15 17 15 11 11 8 7 5 6 7 8 9 12 13 14 14 14 16 15 15 16 18 19 20 20 20 21 21 22 24 24
16 17 16 20 20 19 18 18 19 17 15 12 11 11 14 14 15 15 14 11 9 9 9 11 12 15 15 15 16 15 16 15 16 18 19 21 21 21 21 22 23 23 23 23
12 17 20 22 19 18 19 20 19 16 13 10 7 10 11 12 15 14 10 13 14 12 12 15 17 17 18 18 17 17 17 17 17 19 21 21 20 20 21 21 22 21 22 22
Wind_Direction
239 238 237 245 252 261 271 269 258 274 286 277 271 284 258 219 217 219 216 148 148 150 147 147 151 151 159 166 159 162 157 161 153 148 153 154 155 163 176 176 173 169 176 178
237 238 243 249 251 257 265 265 267 280 285 290 283 272 257 215 205 218 231 181 154 168 141 138 143 156 162 161 160 163 158 148 156 157 159 172 165 174 179 185 185 185 183 181
233 248 241 246 247 249 257 261 260 262 285 306 308 287 258 230 211 222 230 233 213 157 146 146 147 159 168 165 162 162 157 152 155 159 148 185 190 189 178 179 187 190 188 185
245 253 239 243 247 250 248 263 265 259 267 264 251 267 253 249 173 203 222 233 228 173 153 153 152 160 168 171 172 168 165 160 162 161 168 162 171 179 176 168 178 187 194 194
243 242 246 245 246 251 254 260 254 258 263 259 243 248 243 258 180 204 223 234 231 173 159 157 161 168 172 166 163 169 167 175 171 168 164 178 190 193 194 180 173 180 197 209
246 257 254 251 252 244 254 255 259 261 260 255 250 246 240 249 172 170 192 220 229 178 171 162 168 162 184 191 167 166 166 178 185 176 177 174 199 192 193 181 177 179 190 204
249 250 252 255 247 243 242 242 246 249 248 252 259 254 251 279 261 160 166 182 187 173 188 176 166 160 169 178 175 149 170 171 185 196 202 189 185 205 203 188 182 177 180 184
242 242 244 249 242 242 240 240 248 247 247 253 260 252 269 270 238 162 158 179 179 193 201 204 206 221 244 250 236 255 152 165 162 236 225 223 213 209 204 210 208 193 189 185
243 247 248 247 243 239 245 240 252 260 260 255 255 266 270 280 265 144 147 173 194 164 186 189 217 245 251 254 252 237 258 258 261 274 255 245 245 242 233 230 234 219 212 213
251 245 249 243 244 251 252 241 242 255 246 248 255 260 262 260 260 243 190 235 229 206 198 217 223 241 261 255 238 248 257 254 262 270 269 261 256 258 261 255 247 236 249 241
248 249 246 245 246 241 242 244 253 252 257 250 250 258 269 266 260 250 244 243 236 224 214 200 186 230 245 258 253 260 264 263 260 262 267 269 268 267 276 275 263 259 252 254
251 252 245 251 256 250 252 248 254 248 250 259 256 259 274 275 265 257 251 244 250 246 223 243 229 121 185 246 249 260 270 280 273 270 272 271 268 270 273 274 275 271 266 269
255 254 244 247 251 253 253 255 257 261 261 252 253 259 267 274 268 260 257 256 255 259 256 246 215 197 169 253 251 262 272 275 280 286 275 275 275 274 276 278 279 280 277 276
272 263 250 244 248 254 254 258 257 259 255 257 259 257 255 259 259 261 259 258 262 271 278 274 267 276 266 257 262 284 281 283 293 287 284 275 274 277 278 283 284 285 287 282
273 261 261 254 255 260 267 267 262 260 260 257 259 258 244 241 242 251 239 266 277 287 293 293 271 286 288 271 274 284 290 309 328 301 266 268 269 269 273 275 282 287 285 286
273 260 264 260 262 266 265 278 271 267 263 268 259 261 251 240 249 250 256 266 281 305 334 312 302 281 279 287 293 299 303 304 326 357 274 265 277 276 271 273 280 286 284 283
271 259 262 259 267 262 260 276 274 268 268 261 256 258 228 237 241 242 254 263 276 298 325 342 326 314 296 298 308 310 307 317 340 341 344 287 284 286 285 278 278 288 290 281
278 267 270 268 273 255 264 272 292 279 273 268 269 244 234 231 245 251 255 256 267 297 351 355 319 24 32 30 2 339 326 316 334 341 348 336 324 332 324 298 294 312 286 281
283 275 273 263 263 269 265 272 273 275 275 277 264 244 234 228 238 261 254 240 232 318 345 12 56 64 46 37 10 7 0 339 325 314 312 307 315 328 332 323 347 355 334 296
295 298 278 272 263 255 269 269 278 281 268 283 264 247 225 229 248 248 240 234 242 63 74 66 50 22 10 354 352 356 344 338 327 323 326 328 330 327 321 305 310 316 335 336
282 285 274 272 271 272 280 275 273 261 267 272 267 250 235 251 263 229 229 233 226 196 108 44 295 294 305 311 300 312 315 316 329 333 332 333 328 329 329 331 332 332 325 331
289 283 279 278 269 266 288 284 268 272 275 266 262 259 248 256 238 205 228 225 235 240 264 284 297 306 323 331 313 299 312 310 319 324 327 324 326 325 325 327 329 329 328 322
285 294 293 296 288 293 297 291 291 286 276 270 260 253 248 242 237 217 211 212 231 250 270 288 291 300 310 313 315 308 312 304 317 321 317 310 310 313 316 319 319 318 319 317
307 313 298 295 295 297 299 301 302 300 287 274 266 252 246 245 241 234 234 231 237 257 275 293 297 298 305 308 308 308 298 310 313 307 305 302 302 309 315 314 313 312 310 308
320 312 309 299 293 297 302 306 306 309 313 295 272 258 251 246 246 248 247 244 250 267 282 292 299 295 299 298 300 303 300 309 305 301 297 293 304 310 317 317 312 312 314 312
344 314 300 294 299 299 298 298 300 304 309 304 292 268 255 254 257 250 246 256 263 270 283 289 293 296 293 294 297 300 300 300 300 295 294 300 309 317 319 316 313 319 317 317